MYRIOTA 7 (TYVAK-0152)

Last updated on Thu Apr 22 2021 00:02:03 GMT+0000 (Coordinated Universal Time)

1 47968U 21023D 21111.58306917 .00001305 00000-0 10685-3 0 9999 2 47968 45.0067 306.5034 0008804 79.2548 20.6793 15.05092125 4465

Satellite not in orbit

MYRIOTA 7 (TYVAK-0152)